sat.trackr.live / text

‹ back to catalog

STARLINK-32542

NORAD 62177 · 2024-225Q

PAYLOAD ACTIVE UNKNOWN

§ Identity

Operator
Country
US
Launch date
2024-11-30
Launch site
AFWTR
Launch vehicle
Mass (kg)
RCS (m²)

Purposes: comms

External: N2YO · Heavens-Above · Gunter

§ Orbital elements

Epoch: 2026-05-24T22:12:33.722784Z

Period
96.11 min
Inclination
70.0021°
Eccentricity
0.0003011
Mean motion
14.98335670 rev/d
Perigee alt
569.9 km
Apogee alt
574.1 km
Semi-major
6,950.2 km
B*
3.3770e-4
RAAN
332.2641°
Arg perigee
268.7930°
Mean anomaly
91.2884°
Rev number
8,129

§ Raw data

STARLINK-325421 62177U 24225Q   26144.92539031  .00003939  00000+0  33770-3 0  99932 62177  70.0021 332.2641 0003011 268.7930  91.2884 14.98335670 81294

JSON: /api/v1/satellites/62177 · /tle

For live sub-satellite position, see the globe view (requires WebGL).

§ Visibility from observer

Set your observer location to see the next 7 days of passes ≥ 10°. The values pass through the URL so the page stays shareable.

No JS? Fill the form by hand. The geolocation button needs JavaScript.